Location: Recife
(8.0585°S, 34.8848°W)
Time: 13:33:05
(UTC-03:00)

Tiros 1 despin weight - Pass Details

Date: 21 April 2026
Orbit: 555 x 591 km, 48.2° (Epoch: 14 May)

Event Time Altitude Azimuth Distance (km) Brightness Sun altitude
Rises 09:58:28 0° 218° (SW) 2,743 ? 61.8°
Reaches altitude 10° 10:00:43 10° 216° (SW) 1,841 ? 62.2°
Maximum altitude 10:04:55 78° 130° (SE) 569 ? 62.9°
Drops below altitude 10° 10:09:05 10° 43° (NE) 1,823 ? 63.6°
Sets 10:11:19 0° 42° (NE) 2,714 ? 64.0°
